Location: Davidschlag
(48.4333°N, 14.2833°E)
Time: 02:44:22
(UTC+00:00)

STARLINK-49 - Pass Details

Date: 27 February 2020
Orbit: 529 x 530 km, 53.0° (Epoch: 05 April)

Event Time Altitude Azimuth Distance (km) Brightness Sun altitude
Rises 18:54:35 0° 289° (WNW) 2,672 8.6 -22.5°
Reaches altitude 10° 18:56:51 10° 296° (WNW) 1,782 7.3 -22.9°
Enters shadow 19:00:33 48° 360° (N) 704 4.1 -23.5°
